This is the latest recevied weather packets stored in our database for station/object KG4AGD. If no packets are shown the sender has not sent any weather packets the latest 10 day(s).
| Time | Temp. | Humidity | Pressure | Rain* | Wind** | Luminosity | Snow |
|---|---|---|---|---|---|---|---|
| 1777653507 | 13.33° C | 72% | 1017.2 hPa | 1.27 mm | - | - | - |
| 1777653205 | 13.89° C | 71% | 1017.2 hPa | 1.27 mm | - | - | - |
| 1777652903 | 13.33° C | 71% | 1016.9 hPa | 1.27 mm | - | - | - |
| 1777652600 | 13.33° C | 70% | 1016.9 hPa | 1.27 mm | - | - | - |
| 1777652298 | 13.33° C | 69% | 1016.9 hPa | 1.27 mm | - | - | - |
| 1777651996 | 14.44° C | 67% | 1016.9 hPa | 1.27 mm | - | - | - |
| 1777651694 | 14.44° C | 70% | 1016.9 hPa | 1.27 mm | - | - | - |
| 1777651392 | 14.44° C | 67% | 1016.9 hPa | 1.27 mm | - | - | - |
| 1777651090 | 14.44° C | 73% | 1016.9 hPa | 1.27 mm | - | - | - |
| 1777650183 | 13.33° C | 74% | 1017.6 hPa | 1.27 mm | - | - | - |
| 1777649879 | 13.33° C | 76% | 1017.6 hPa | 1.27 mm | - | - | - |
| 1777649577 | 12.78° C | 80% | 1017.6 hPa | 1.27 mm | - | - | - |
| 1777649275 | 12.78° C | 77% | 1017.6 hPa | 1.27 mm | - | - | - |
| 1777648972 | 12.22° C | 82% | 1017.6 hPa | 1.27 mm | - | - | - |
| 1777648670 | 12.22° C | 81% | 1017.9 hPa | 1.27 mm | - | - | - |
| 1777648368 | 11.67° C | 79% | 1017.9 hPa | 1.27 mm | - | - | - |
| 1777648066 | 12.22° C | 81% | 1017.9 hPa | 1.27 mm | - | - | - |
| 1777647764 | 12.22° C | 84% | 1017.9 hPa | 1.27 mm | - | - | - |
| 1777647462 | 12.22° C | 85% | 1017.6 hPa | 1.27 mm | - | - | - |
| 1777647160 | 11.67° C | 87% | 1017.6 hPa | 1.27 mm | - | - | - |
| 1777646858 | 11.67° C | 89% | 1017.6 hPa | 1.27 mm | - | - | - |
| 1777646254 | 10.56° C | 89% | 1017.6 hPa | 1.27 mm | - | - | - |
| 1777645951 | 10.56° C | 87% | 1017.9 hPa | 1.27 mm | - | - | - |
| 1777645649 | 10.56° C | 88% | 1017.6 hPa | 1.27 mm | - | - | - |
| 1777645347 | 10.56° C | 89% | 1017.6 hPa | 1.27 mm | - | - | - |
* Rain since midnight (hover to see other rain measurements)
** Current wind speed in m/s (hover to see current wind gust speed)